{"data":{"norad_id":68377,"epoch":"2026-09-19T13:41:00.559104Z","epoch_age_seconds":152586,"freshness":"FRESH","line1":"1 68377U 26062A   26262.57014536  .00000638  00000+0  33053-4 0  9990","line2":"2 68377  97.4392 268.5358 0001591  88.7505 271.3912 15.19714691 26987","mean_motion":15.19714691,"eccentricity":0.0001591,"inclination_deg":97.4392,"raan_deg":268.5358,"arg_perigee_deg":88.7505,"mean_anomaly_deg":271.3912,"bstar":3.3053e-5,"rev_number":2698,"period_min":94.754627860605,"perigee_km":505.6068007574,"apogee_km":507.79755658406,"semimajor_km":6884.8391786707,"source":"CELESTRAK","updated_at":"2026-09-20T09:00:24.166303Z"}}